Regional Weather Roundup
Issued by NWS

Home | Current Version | Previous Version | Text Only | Print | Product List | Glossary Off
Versions: 1 2 3 4 5 6 7 8 9 10 11 12 13 14 15 16 17 18 19 20 21 22 23 24 25 26 27 28 29 30 31 32 33 34 35 36 37 38 39 40 41 42 43 44 45 46 47 48 49 50

000
ASUS43 KOAX 302310
RWRNE

WEATHER ROUNDUP FOR NEBRASKA
NATIONAL WEATHER SERVICE OMAHA NE
600 PM CDT TUE AUG 30 2016

NOTES: SATELLITE DATA IS BEING USED TO AUGMENT CLOUD COVER ABOVE
       12000 FEET.
       "FAIR" INDICATES FEW OR NO CLOUDS BELOW 12,000 FEET WITH NO
       SIGNIFICANT WEATHER AND/OR OBSTRUCTIONS TO VISIBILITY.

  * THESE STATIONS DO NOT REPORT WEATHER SUCH AS RAIN...SNOW OR FOG.

NEZ001>004-019>022-054>056-310000-
NEBRASKA PANHANDLE

CITY           SKY/WX    TMP DP  RH WIND       PRES   REMARKS
SCOTTSBLUFF    SUNNY     85  51  31 SE13      30.21F
ALLIANCE       SUNNY     83  54  36 E7        30.21S
CHADRON        MOSUNNY   89  48  24 SE14      30.16F
KIMBALL        CLOUDY    74  57  54 SE10G18   30.27S
SIDNEY         LGT RAIN  72  64  76 SE6       30.27R
$$

NEZ057>060-069>072-079>082-310000-
SOUTHWEST NEBRASKA

CITY           SKY/WX    TMP DP  RH WIND       PRES   REMARKS
NORTH PLATTE   PTSUNNY   78  64  61 E9        30.20S
IMPERIAL         N/A     74  62  66 E8        30.21F
LEXINGTON      CLOUDY    75  66  73 NE3       30.19F
MCCOOK         CLOUDY    76  65  68 E10       30.18F
OGALLALA       CLOUDY    75  62  63 CALM      30.21S
$$

NEZ005>010-023>029-035>040-094-310000-
NORTH CENTRAL NEBRASKA

CITY           SKY/WX    TMP DP  RH WIND       PRES   REMARKS
VALENTINE      PTSUNNY   89  54  30 SE10      30.15F
AINSWORTH      SUNNY     81  64  55 E10       30.17F
BROKEN BOW     CLOUDY    75  66  73 S6        30.19F
O`NEILL        MOSUNNY   83  61  47 E8        30.18S
ORD            CLOUDY    79  65  62 E5        30.16F
THEDFORD       MOSUNNY   83  59  43 SE9       30.19S
$$

NEZ041-046>049-061>064-073>077-083>087-310000-
SOUTH CENTRAL NEBRASKA

CITY           SKY/WX    TMP DP  RH WIND       PRES   REMARKS
GRAND ISLAND   CLOUDY    75  66  73 NE3       30.17F
AURORA         CLOUDY    75  70  85 CALM      30.17F
HASTINGS       PTSUNNY   73  65  75 N5        30.17F
HEBRON         LGT RAIN  76  70  82 E5        30.15S
HOLDREGE       CLOUDY    74  65  75 NE6       30.18F
KEARNEY *      CLOUDY    75  64  69 E5        30.16F
YORK           CLOUDY    73  68  83 NE6       30.17S
$$

NEZ011>018-030>034-042>045-310000-
NORTHEAST NEBRASKA

CITY           SKY/WX    TMP DP  RH WIND       PRES   REMARKS
NORFOLK        CLOUDY    81  67  62 N7        30.16F
ALBION         CLOUDY    78  68  71 E5        30.17S
BLAIR          CLOUDY    76  69  78 N5        30.15F
FREMONT        CLOUDY    76  67  73 CALM      30.16F
TEKAMAH        CLOUDY    79  69  71 NE3       30.14F
WAYNE          MOSUNNY   79  71  76 NE7       30.16F
$$

NEZ050>053-065>068-078-088>093-310000-
SOUTHEAST NEBRASKA

CITY           SKY/WX    TMP DP  RH WIND       PRES   REMARKS
LINCOLN        CLOUDY    77  68  73 NE7       30.15F
OMAHA EPPLEY   CLOUDY    78  69  73 N6        30.14S
BEATRICE       CLOUDY    77  70  79 NE5       30.14S
FALLS CITY     PTSUNNY   80  71  74 N3        30.11S
NEBRASKA CITY  PTSUNNY   77  69  78 CALM      30.14S
PLATTSMOUTH    CLOUDY    76  69  78 N6        30.14F
$$

NEZ044-045-051>053-067-310000-
OMAHA AREA

CITY           SKY/WX    TMP DP  RH WIND       PRES   REMARKS
OMAHA EPPLEY   CLOUDY    78  69  73 N6        30.14S
BLAIR          CLOUDY    76  69  78 N5        30.15F
FREMONT        CLOUDY    76  67  73 CALM      30.16F
MILLARD        CLOUDY   N/A N/A N/A CALM      30.14S
OFFUTT AFB     CLOUDY    78  69  74 N5        30.13S
PLATTSMOUTH    CLOUDY    76  69  78 N6        30.14F
WAHOO          FAIR      75  69  80 CALM      30.15F
$$




USA.gov is the U.S. government's official web portal to all federal, state and local government web resources and services.